OBJECT Q, 59065

Orbit data source: Space-Track

You're viewing an Uncataloged Satellite

Recently launched and/or uncataloged satellites may have evolving metadata. Metadata may include but not limited to: Owner, Maufacturer, Bus, Motor, and Mission.

OBJECT Q, 59065 is a satellite in SSO that was launched on Thu, 29 Feb 2024 UTC via a SOYUZ-2-1B launch vehicle from the Vostochny Cosmodrome (VOSTO). Unknown objects in Earth's orbit typically refer to objects detected orbiting the Earth but have not yet been identified or cataloged. These objects could be anything from previously untracked satellites, spent rocket stages, debris from satellite collisions, or even natural meteoroids temporarily captured by Earth's gravity.

Loading next visibility...
Identifier
59065, 2024-039Q
Orbit
SSO
Country
Flag of TBDTBD
Related business
Manufacturer
ISRC
Mission
Operational Civil Imaging
Bus & Motor
MEHDA, Unknown motor
Mass
134 kg wet, 134 kg dry
Launch date (UTC)
2024-02-29 (2 years ago)
Launch vehicle
SOYUZ-2-1B
Launch site
Vostochny Cosmodrome (VOSTO)
Object type
Unknown
Shape & HBR
Box, 0.3 m
Radar Cross Section
0.375 m², Medium (>0.1 m² and < 1m²)

Expand to show TLE details & history
Last TLE update: 5 hours ago

TLE from 5 hours ago
0 OBJECT Q
1 59065U 24039Q   26169.60924683  .00008888  00000-0  18527-3 0  9993
2 59065  97.4826 150.5738 0011535 107.4492 252.8019 15.45748463128863
Epoch: 2026-06-18T14:37Z
TLE epoch observation values (Epoch: 2026-06-18T14:37:18.926Z)
Latitude
0.00002°
Longitude
24.39482°
Altitude
434.633 km
Speed
7.65 km/s
True Right ascension
10h 02m 17s
True Declination
0° 00' 00"
Sunlit
Object was in daylight at epoch
Visualization orbit readout
Latitude
Unknown
Longitude
Unknown
Altitude
Unknown
Speed
Unknown
Apparent Right ascension
Unknown
Apparent Declination
Unknown
Sunlit
N/A
Visualization observer readout
Local Sidereal Time
06:45:47
Azimuth
Unknown
Elevation
Unknown
Doppler factor
Unknown
Orbital elements
Apogee altitude
433.963 km
Perigee altitude
418.266 km
Semi-major axis
6,804.252 km
Eccentricity
0.00115
Inclination
97.4826°
RAAN
150.5738°
Arg. of periapsis
107.4492°
True anomaly
252.67568°
Mean anomaly
252.8019°
Eccentric anomaly
252.73879°
Mean motion
3.86699 °/min
Orbital period
93.1 mins
BSTAR
0.00018527
Loading maneuver chart data...
Computing Atmospheric mass density...
Loading historical data...
Loading historical data...
Loading historical data...
Loading historical data...
Loading historical data...
Loading historical data...
Loading historical data...

Documentation

Showing up to 5 results
|